Tracking 30922 objects as of 2-Jul-2025
HD Live streaming from Space Station
objects crossing your sky now

ARIANE 5 DEB (SYLDA)

Track ARIANE 5 DEB (SYLDA) now!
10-day predictions


NORAD ID: 39081
Int'l Code: 2013-006D
Perigee: 186.2 km
Apogee: 13,273.3 km
Inclination: 6.2 °
Period: 248.7 minutes
Semi major axis: 13100 km
RCS: 0.003 m2 (small)
Launch date: February 7, 2013
Source: France (FR)
Launch site: FRENCH GUIANA (FRGUI)

Note: This is SATELLITE DEBRIS
Your satellite tracking list
BREEZE-M R/B
Track 1 satellite(s)




NASA's NSSDC Master Catalog

Two Line Element Set (TLE):
1 39081U 13006D   25182.69902934  .00543591 -30187-7  51556-2 0  9999
2 39081   6.1907 176.3103 4994824 342.4394   5.0972  5.78973916149907
Source of the keplerian elements: AFSPC